Weather in Kusak

Russia / Altai Krai     53°13′21″N   78°56′08″E
temp.,
°C
wind,
m/s
gust,
m/s
humid.,
%
clouds,
%
prec.,
mm/h
press.,
hPa
HPBL,
m
6 march, sat
sat601:00−6sw91682100 0.1 1020758
04:00−7ssw91685100 0.0 1019607
07:00−8ssw91785100 0.0 1018558
10:00−7ssw101889100 0.0 1016657
13:00−4ssw111790100 0.1 1014942
16:00−2sw101695100 0.8 10141030
19:00−2sw81396100 1.8 1013818
22:00−2sw81396100 1.3 1013673
7 march, sun
sun701:00−2sw71296100 2.5 1014625
04:00−4wnw4795100 1.1 1015318
07:00−8wnw2388100 1.1 101834
10:00−9wnw1287100 0.0 101926
13:00−6sw2379100 0.0 1020217
16:00−4ssw248890 0.0 1021276
19:00−6sse239594 0.0 102021
22:00−3s5894100 0.0 1020359
8 march, mon
mon801:00−5s51194100 0.0 1018238
04:00−6s5119398 0.0 1016268
07:00−6s6119099 0.0 1014271
10:00−6s71288100 0.0 1012324
13:00−3ssw81481100 0.0 1010554
16:00−1wsw81388100 0.0 1011993
19:00−2w71195100 0.5 1014608
22:00−11w459347 0.0 101988
9 march, tue
tue901:00−15w459443 0.0 102274
04:00−17wsw349286 0.0 102345
07:00−17ssw448788 0.0 102555
10:00−15s489135 0.0 1024154
13:00−10s479156 0.0 1023269
16:00−7s479268 0.0 1020336
19:00−3s489582 0.1 1018519
22:00−3sw5994100 0.1 1017550
10 march, wed
wed1001:00−7sw349881 0.1 101656
04:00−9wsw349772 0.0 101678
07:00−12wsw348686 0.0 101753
10:00−11wsw2286100 0.0 101679
13:00−8s237897 0.0 1015199
16:00−5ese2379100 0.0 1012216
19:00−4e5896100 0.1 1008245
22:000se61096100 0.5 1004537